Temperature
30 31 31 31 32 32 31 31 30 29 30 30 30 30 29 28 28 27 26 25 25 24 23 23 22 22 21 21 21 21 20 20 20 19 19 19 19 19 18 18 18 18 18 18
29 30 31 31 31 31 31 31 30 30 29 30 30 29 28 28 27 26 26 25 24 23 23 22 22 21 21 21 20 20 20 20 19 19 19 19 19 18 18 18 18 18 18 18
28 30 30 30 30 30 30 31 30 29 29 29 29 28 28 27 26 26 25 24 24 23 22 22 21 21 21 20 20 20 19 19 19 19 19 19 18 18 18 18 18 18 17 17
28 28 27 30 32 31 30 30 30 30 30 29 29 28 27 26 26 25 24 24 23 23 22 22 21 21 20 20 20 19 19 19 19 19 18 18 18 18 18 17 17 17 17 17
27 27 28 30 30 30 30 29 29 29 29 28 28 27 26 26 25 24 24 23 23 23 22 22 21 21 20 20 19 19 19 18 18 18 18 18 18 17 17 17 17 17 17 17
26 26 26 28 30 30 30 27 28 28 27 27 27 27 26 25 24 23 23 22 22 22 21 21 21 20 20 19 19 19 18 18 18 18 18 17 17 17 17 17 17 17 17 17
26 26 27 28 29 29 27 26 26 27 26 26 26 25 24 23 23 22 22 22 21 21 21 20 20 20 19 19 19 18 18 18 17 17 17 17 17 17 17 17 16 16 16 16
26 25 25 27 28 26 25 25 25 25 25 25 24 24 23 22 22 21 21 21 21 20 20 20 19 19 19 18 18 18 18 17 17 17 17 17 17 17 16 16 16 16 16 16
25 25 25 25 25 24 24 24 24 24 24 24 23 23 22 22 21 21 20 20 20 20 19 19 19 18 18 18 18 17 17 17 17 17 17 17 16 16 16 16 16 16 15 15
24 24 24 24 23 23 23 23 23 23 23 23 23 22 21 21 20 20 20 19 19 19 19 18 18 18 17 17 17 17 17 17 16 16 16 16 16 16 16 16 16 15 15 15
23 24 23 23 23 22 22 22 22 22 22 22 22 21 21 20 20 19 19 18 18 18 18 17 17 17 17 17 17 16 16 16 16 16 16 16 16 16 16 16 16 15 15 15
23 23 23 22 22 22 22 21 21 21 21 21 21 20 20 19 19 18 18 18 17 17 17 17 17 16 16 16 16 16 16 16 16 16 16 16 16 16 16 16 16 16 15 15
22 22 21 21 21 21 21 21 21 20 20 20 20 20 19 19 18 18 17 17 17 17 16 16 16 16 16 16 16 16 16 15 15 15 15 16 16 16 15 15 15 15 15 15
21 21 21 21 20 20 20 20 20 20 19 19 19 19 18 18 18 17 17 17 16 16 16 16 15 15 15 15 15 15 15 15 15 15 15 15 15 15 15 15 15 15 15 15
20 20 20 20 20 20 20 20 19 19 19 19 18 18 18 17 17 17 16 16 16 16 15 15 15 15 15 15 15 14 14 14 15 15 15 15 15 15 15 15 15 15 15 14
19 19 19 19 19 19 19 19 19 19 18 18 18 17 17 17 17 16 16 16 15 15 15 15 14 14 14 14 14 14 14 14 15 14 15 15 15 15 15 15 15 14 14 14
19 19 19 19 19 18 18 18 18 18 18 17 17 17 16 16 16 16 16 15 15 15 14 14 14 14 14 14 14 14 14 14 14 14 14 14 14 14 14 14 14 14 14 14
18 18 18 18 18 18 18 18 17 17 17 17 16 16 16 16 15 15 15 15 15 14 14 14 14 14 14 13 13 13 14 14 14 14 14 14 14 14 14 14 14 14 14 13
17 17 17 17 17 17 17 17 17 16 16 16 16 15 15 15 15 15 15 14 14 14 14 14 14 13 13 13 13 13 13 13 13 14 14 14 14 14 13 13 13 13 13 13
17 17 17 16 16 16 16 16 16 15 15 15 15 14 14 14 14 14 14 14 14 13 13 13 13 13 13 13 13 13 13 13 13 13 13 13 13 13 13 13 13 13 13 13
16 16 16 16 15 15 15 15 15 15 14 14 14 14 14 14 14 13 13 13 13 13 13 13 13 13 13 13 13 13 13 13 13 13 13 13 13 13 13 13 13 13 13 13
15 15 15 15 15 14 14 14 14 14 14 14 14 13 13 13 13 13 13 13 13 13 13 13 13 13 13 13 13 13 13 13 13 12 12 12 12 12 12 12 12 12 12 12
15 14 14 14 14 14 14 14 14 13 13 13 13 13 13 13 13 13 12 12 13 13 13 12 12 13 13 12 12 12 12 12 12 12 12 12 12 12 12 12 12 12 11 11
14 14 14 14 13 13 13 13 13 13 13 13 13 13 13 13 13 13 13 12 12 12 12 12 12 12 12 12 12 12 12 12 12 12 12 12 12 12 11 11 11 11 11 11
13 13 13 13 13 13 13 13 13 13 13 13 13 13 13 13 12 12 12 12 12 12 12 12 11 11 11 11 11 11 11 11 11 11 11 11 11 11 11 10 10 10 10 10
13 13 13 13 13 13 13 13 13 13 13 13 13 13 12 12 12 12 12 12 12 12 11 11 11 11 11 11 11 11 11 11 11 11 10 10 10 10 10 10 10 10 10 10
13 13 13 13 13 13 13 13 13 13 13 12 12 12 12 12 12 12 11 11 11 11 11 11 11 11 11 11 10 11 10 10 10 10 10 10 10 10 9 9 9 9 9 9
Wind_Speed
12 11 9 10 10 9 9 8 7 5 3 2 2 3 4 4 4 6 6 6 6 6 5 4 4 4 4 4 3 3 4 3 3 4 3 3 3 3 2 3 3 2 2 2
13 12 11 11 10 9 8 7 6 5 3 0 3 3 4 4 3 3 5 5 5 6 5 4 4 4 4 4 3 3 4 3 3 3 3 2 2 2 2 2 2 2 3 2
12 12 13 12 9 8 7 6 4 3 2 2 1 2 3 4 2 2 3 4 4 4 4 4 4 4 4 4 4 4 3 2 2 2 2 2 2 2 2 2 2 3 3 3
11 11 13 7 4 4 5 4 3 2 2 1 2 2 3 3 3 2 2 2 2 3 3 4 4 4 4 4 4 3 3 3 2 2 2 2 2 2 2 2 3 3 3 3
9 11 10 7 4 4 4 2 2 1 1 1 1 1 2 3 3 2 1 1 0 1 2 2 2 3 3 3 4 3 3 2 2 2 2 2 3 3 3 3 3 3 3 3
9 10 9 3 1 2 3 3 2 2 3 3 2 1 2 4 3 2 2 1 1 0 1 1 1 2 3 3 3 3 3 2 2 2 2 2 3 3 3 3 3 3 3 3
12 11 7 3 3 4 4 1 5 4 3 3 2 3 3 4 4 3 2 1 1 2 2 2 2 2 3 3 3 3 2 2 2 2 3 2 3 3 3 3 3 3 3 3
9 10 5 6 4 3 4 5 5 4 4 4 4 3 3 3 3 3 2 1 1 2 2 2 2 2 2 2 1 2 2 2 2 2 3 3 2 3 3 3 3 4 4 4
2 2 4 7 7 5 4 4 4 4 3 4 3 2 3 3 2 2 2 1 1 1 2 1 1 1 1 1 1 1 2 2 3 3 2 2 3 3 4 4 4 4 4 3
1 0 3 6 6 6 6 5 5 4 4 3 2 2 3 2 2 2 2 1 1 0 0 0 0 0 1 1 2 2 2 2 2 2 3 3 3 3 3 3 3 3 3 3
3 1 2 3 4 5 6 5 5 5 5 4 3 1 1 1 1 1 1 1 1 1 0 0 0 1 1 1 1 1 2 2 3 4 4 3 2 3 3 2 2 3 3 2
3 2 3 3 4 4 4 5 5 5 4 5 4 2 1 1 1 1 1 1 1 0 0 0 1 0 1 1 1 2 2 3 4 4 3 3 3 3 2 4 4 4 3 2
3 3 3 4 5 5 5 5 5 4 4 4 4 2 1 0 1 0 0 0 0 0 0 0 0 1 1 1 1 2 3 3 4 4 4 3 3 3 3 3 3 4 4 4
4 3 3 4 5 6 6 5 5 4 3 3 2 2 1 0 0 0 1 1 1 1 1 0 1 1 1 2 2 3 4 4 4 4 5 5 4 4 4 3 3 3 4 5
4 3 4 4 5 5 5 5 5 4 3 3 2 2 1 1 1 1 1 1 1 1 1 2 2 2 2 3 3 4 4 4 3 4 5 4 4 4 4 3 3 2 1 2
5 5 5 5 5 6 6 6 5 5 4 3 2 2 2 1 1 1 1 2 2 3 2 2 2 2 2 4 4 4 4 5 5 5 5 4 4 3 3 2 2 3 2 1
6 6 6 6 6 6 6 6 6 5 4 3 2 3 3 3 2 2 1 2 2 2 2 2 3 3 3 3 4 4 5 5 6 5 5 4 4 3 3 3 3 3 3 1
6 6 6 6 6 6 6 6 5 4 3 2 2 2 3 3 3 3 2 2 2 3 3 4 4 4 3 3 4 5 5 4 4 3 3 3 3 3 3 3 4 4 3 2
4 4 5 5 5 5 5 5 4 3 3 2 2 3 4 3 3 3 4 4 4 4 3 3 4 4 4 4 4 3 4 4 4 2 2 2 3 3 4 4 4 4 3 1
4 4 4 5 5 5 4 4 3 3 2 2 3 3 4 4 3 4 4 4 4 4 4 4 4 3 4 3 3 3 4 4 4 3 3 3 3 4 4 4 4 4 3 2
3 3 3 4 4 5 4 4 3 3 3 2 3 3 4 4 4 4 4 5 3 3 4 4 4 3 3 3 4 4 4 4 3 3 4 4 4 4 4 3 3 3 3 2
3 3 3 4 4 4 3 3 3 3 3 3 4 4 4 5 5 4 4 4 4 4 4 4 3 2 3 4 3 4 4 4 4 3 4 4 3 3 3 3 3 3 2 2
4 4 4 4 4 4 4 3 3 3 3 3 3 3 4 4 4 4 4 3 3 4 4 3 2 1 3 3 4 4 4 4 4 4 4 4 4 4 4 3 3 3 2 2
4 4 5 5 4 4 4 4 3 3 3 3 3 3 3 4 4 3 3 2 3 4 4 2 2 3 3 3 4 4 5 4 3 4 4 4 3 3 3 3 3 3 3 3
5 5 5 5 5 4 3 3 4 4 4 3 3 3 3 3 3 3 3 3 3 3 4 3 4 5 5 4 4 4 4 3 3 3 3 3 3 3 3 2 2 2 3 4
4 4 4 4 4 3 3 4 3 3 3 3 3 2 2 2 2 3 3 4 4 3 3 2 2 3 3 3 3 3 3 3 3 3 4 4 4 3 3 3 3 3 3 3
4 3 2 3 4 3 3 3 3 3 2 3 3 3 3 3 3 3 3 3 3 3 2 2 2 2 2 2 2 2 3 3 3 3 3 3 3 2 2 2 3 3 3 3
Wind_Direction
270 273 266 263 265 258 258 261 264 258 238 215 127 122 115 116 130 126 122 114 108 110 116 133 141 140 142 154 159 162 167 186 175 171 165 180 195 203 205 218 233 234 239 253
268 269 269 267 269 268 266 262 248 254 254 90 107 103 101 103 105 104 116 122 124 125 128 143 152 148 149 157 161 168 180 186 169 169 165 181 197 205 216 230 243 245 242 239
264 260 262 255 251 257 266 273 262 261 255 159 150 90 101 108 110 111 117 120 120 132 140 149 155 158 167 166 167 176 183 174 161 172 183 195 224 218 227 243 253 255 250 234
262 259 253 259 252 225 242 264 281 247 215 184 110 95 87 114 127 122 108 118 139 157 153 161 157 163 181 169 171 176 183 176 169 178 206 212 224 236 240 246 248 249 253 250
259 259 254 251 246 252 255 278 351 357 359 35 69 114 87 71 91 88 83 79 129 173 164 155 174 169 165 180 181 183 191 190 192 199 215 218 226 235 238 247 253 250 254 246
252 259 263 282 345 303 244 226 36 26 16 358 332 238 56 44 51 71 56 51 36 74 138 141 145 151 168 195 192 194 197 199 212 220 236 233 240 244 249 249 247 250 254 254
248 254 256 324 329 296 265 38 34 36 23 348 358 8 46 29 39 60 66 75 63 73 90 120 135 152 183 203 210 199 184 191 211 228 247 234 243 246 251 257 255 253 257 255
246 252 255 2 353 25 43 33 25 25 13 16 36 53 60 47 44 37 19 25 98 93 105 115 135 157 186 203 207 178 178 202 210 225 254 254 254 259 252 248 248 242 246 255
276 282 49 38 40 46 40 16 4 2 2 8 16 28 53 50 32 16 19 30 52 95 105 105 117 137 210 211 193 188 192 215 231 234 250 274 255 256 255 245 246 251 246 249
281 17 32 34 26 9 6 2 353 349 347 354 350 15 38 47 30 22 25 24 21 63 120 56 34 204 248 238 201 217 223 229 237 239 248 257 253 255 257 268 274 272 271 267
242 234 312 347 2 352 356 357 351 344 344 346 350 3 17 61 52 9 4 12 5 19 55 42 10 234 238 255 213 217 240 247 252 252 246 250 247 265 262 271 265 276 297 303
271 318 311 327 346 345 348 346 335 327 330 335 342 340 341 29 66 51 341 13 17 18 43 48 43 283 252 257 228 219 247 260 267 270 262 248 243 253 259 239 226 218 213 231
321 320 331 337 344 342 333 325 322 322 318 317 334 332 313 272 116 98 355 314 258 264 212 129 325 295 266 247 249 249 257 261 270 271 268 258 256 254 252 251 242 235 220 209
5 1 330 327 327 323 318 311 305 307 315 313 328 326 294 272 136 183 258 256 232 250 272 283 291 293 291 266 251 259 265 260 263 269 266 259 255 259 258 252 246 249 236 217
328 313 299 305 308 314 315 309 300 303 306 312 312 306 276 234 234 252 270 278 269 266 271 279 277 286 302 286 261 258 267 275 269 270 272 272 268 264 262 259 263 258 218 220
297 296 292 294 304 310 306 301 295 297 301 306 312 321 308 270 233 237 257 271 268 273 272 275 284 281 276 284 281 260 253 263 269 273 277 280 275 274 282 291 288 287 275 212
288 289 293 300 306 308 306 301 295 295 297 306 318 324 316 302 293 280 284 270 269 274 279 282 287 283 272 282 286 278 267 256 248 260 268 277 286 285 285 287 291 297 290 249
290 292 295 299 304 305 308 312 308 307 311 310 304 304 291 287 292 304 305 291 281 284 287 296 292 283 269 266 276 278 285 293 274 256 266 277 287 287 286 278 270 269 270 252
291 296 301 306 309 313 310 311 313 319 329 333 331 322 316 314 316 314 311 303 290 281 283 288 277 275 276 269 271 271 285 292 297 299 285 282 279 274 273 274 277 275 274 261
293 299 308 310 316 321 320 321 323 317 316 324 319 315 307 304 307 300 295 287 281 289 296 294 284 278 274 278 267 270 275 279 286 298 298 289 288 287 284 288 293 298 300 285
312 303 301 318 326 327 330 331 327 322 321 310 300 296 294 296 289 282 285 287 295 302 287 274 273 273 268 274 252 265 276 277 277 278 281 283 283 288 293 301 304 304 313 315
313 312 312 319 317 318 327 328 319 316 313 312 306 304 304 301 297 296 297 294 299 306 291 288 290 323 325 293 272 264 266 273 278 284 287 285 285 290 294 298 299 300 307 320
308 311 312 311 310 311 306 299 296 297 301 301 297 294 293 296 295 293 295 303 310 313 299 299 312 334 316 292 283 276 272 270 274 279 279 282 288 291 292 292 294 301 306 303
297 291 289 287 283 279 277 278 279 279 280 278 273 277 279 279 281 281 289 295 310 301 295 279 234 247 262 275 279 281 282 282 279 283 290 295 306 314 312 315 318 328 332 328
283 282 276 267 264 263 261 260 258 259 268 278 285 286 282 290 294 308 313 310 300 283 288 260 226 237 254 275 277 282 289 303 309 310 311 312 310 312 321 334 340 344 344 339
281 275 279 280 280 277 273 273 273 278 285 288 291 297 303 302 296 288 283 287 294 291 297 291 252 240 261 275 280 292 304 307 306 302 303 303 300 303 315 322 329 335 336 341
271 264 263 266 271 279 280 281 294 303 309 311 310 320 319 314 313 307 304 308 307 303 301 299 295 286 273 278 289 305 304 306 311 311 314 312 313 319 331 331 337 353 353 353
Height
1474 1469 1467 1469 1468 1468 1472 1474 1483 1484 1482 1480 1481 1481 1484 1487 1490 1492 1495 1498 1501 1503 1505 1507 1509 1511 1512 1514 1515 1516 1517 1518 1519 1520 1520 1521 1522 1522 1522 1522 1522 1521 1521 1521
1478 1470 1468 1469 1467 1467 1469 1471 1475 1478 1482 1477 1480 1483 1486 1489 1491 1493 1496 1498 1501 1503 1505 1507 1508 1510 1511 1513 1514 1515 1516 1517 1517 1518 1518 1519 1519 1519 1519 1519 1519 1519 1518 1518
1485 1473 1472 1478 1469 1469 1471 1470 1473 1481 1481 1479 1481 1484 1487 1489 1492 1494 1497 1499 1501 1503 1504 1506 1508 1509 1510 1511 1513 1514 1514 1515 1516 1516 1517 1517 1517 1517 1517 1517 1517 1516 1516 1515
1482 1482 1495 1474 1460 1463 1469 1470 1470 1473 1476 1478 1482 1485 1488 1490 1493 1495 1497 1499 1500 1502 1503 1505 1506 1508 1509 1510 1511 1512 1513 1513 1514 1514 1515 1515 1515 1515 1515 1514 1514 1513 1513 1512
1485 1488 1482 1469 1463 1464 1470 1474 1473 1475 1478 1480 1482 1485 1488 1491 1493 1495 1497 1498 1500 1501 1502 1503 1505 1506 1507 1509 1510 1510 1511 1511 1512 1512 1512 1512 1512 1512 1512 1511 1511 1510 1510 1509
1486 1493 1493 1477 1465 1464 1469 1479 1477 1478 1480 1482 1483 1486 1490 1492 1493 1494 1496 1497 1499 1500 1501 1502 1503 1504 1505 1506 1507 1508 1508 1509 1509 1510 1510 1510 1510 1509 1509 1509 1508 1507 1507 1506
1486 1489 1483 1471 1468 1468 1482 1488 1481 1481 1483 1485 1486 1489 1491 1492 1493 1494 1495 1496 1497 1498 1499 1500 1501 1502 1503 1504 1505 1505 1506 1507 1507 1508 1508 1508 1508 1507 1507 1506 1505 1505 1504 1503
1483 1489 1490 1475 1472 1479 1485 1484 1484 1485 1486 1487 1488 1489 1490 1492 1493 1494 1494 1495 1496 1497 1497 1498 1499 1500 1501 1501 1502 1503 1504 1504 1505 1505 1506 1506 1505 1505 1504 1503 1502 1502 1501 1500
1483 1486 1483 1481 1482 1484 1485 1486 1486 1487 1487 1488 1489 1490 1490 1492 1493 1494 1494 1495 1495 1496 1496 1497 1497 1498 1499 1499 1500 1500 1501 1502 1502 1502 1502 1502 1502 1502 1501 1500 1500 1499 1499 1498
1482 1482 1483 1484 1486 1487 1487 1487 1488 1488 1488 1488 1489 1490 1491 1492 1492 1493 1494 1494 1494 1495 1495 1495 1496 1496 1497 1497 1498 1498 1499 1499 1499 1499 1499 1499 1499 1498 1498 1498 1497 1497 1496 1495
1482 1483 1485 1486 1487 1488 1488 1488 1488 1489 1489 1489 1489 1490 1491 1492 1492 1493 1493 1494 1494 1494 1494 1494 1494 1494 1494 1495 1495 1495 1495 1496 1496 1496 1496 1496 1495 1495 1494 1494 1494 1494 1493 1492
1484 1485 1486 1488 1488 1489 1489 1489 1490 1490 1490 1489 1489 1489 1490 1491 1492 1492 1493 1493 1493 1492 1492 1492 1492 1492 1492 1492 1492 1492 1492 1493 1493 1493 1493 1492 1492 1491 1490 1491 1491 1490 1489 1489
1485 1485 1487 1488 1489 1489 1489 1490 1490 1490 1489 1489 1489 1489 1489 1490 1491 1491 1491 1492 1492 1491 1491 1490 1490 1490 1489 1489 1490 1490 1490 1489 1489 1490 1489 1489 1489 1488 1487 1487 1486 1486 1486 1485
1486 1487 1488 1489 1489 1489 1489 1489 1489 1489 1489 1489 1488 1488 1489 1489 1489 1490 1490 1490 1490 1490 1489 1489 1488 1488 1488 1488 1487 1487 1487 1486 1486 1486 1486 1485 1485 1484 1484 1483 1482 1482 1481 1481
1488 1488 1488 1489 1489 1488 1488 1488 1488 1488 1488 1488 1488 1488 1488 1488 1488 1488 1489 1489 1489 1488 1488 1487 1486 1486 1486 1485 1485 1484 1484 1484 1483 1483 1483 1483 1482 1482 1481 1480 1480 1479 1477 1477
1488 1487 1487 1487 1487 1487 1487 1487 1486 1486 1486 1486 1486 1486 1486 1486 1487 1487 1487 1487 1487 1486 1486 1485 1484 1484 1483 1483 1482 1482 1481 1481 1480 1480 1480 1480 1479 1478 1478 1477 1476 1476 1475 1473
1486 1486 1486 1486 1486 1485 1485 1485 1485 1485 1485 1484 1485 1485 1485 1485 1485 1485 1485 1485 1485 1484 1484 1483 1482 1481 1480 1480 1479 1479 1479 1478 1477 1477 1477 1476 1476 1475 1474 1474 1473 1472 1472 1471
1485 1485 1485 1485 1484 1483 1483 1483 1482 1482 1483 1483 1483 1483 1483 1483 1483 1483 1483 1482 1482 1481 1481 1480 1479 1478 1477 1477 1476 1476 1476 1475 1475 1474 1473 1473 1472 1472 1472 1471 1470 1469 1468 1467
1483 1483 1483 1483 1483 1482 1481 1481 1481 1481 1481 1481 1481 1481 1481 1481 1481 1481 1480 1480 1479 1478 1477 1477 1476 1475 1474 1474 1474 1473 1473 1472 1472 1471 1470 1470 1469 1469 1468 1468 1467 1466 1465 1464
1482 1482 1482 1482 1481 1481 1480 1480 1480 1480 1480 1480 1480 1480 1479 1479 1478 1478 1477 1476 1476 1474 1474 1473 1473 1472 1471 1471 1471 1470 1470 1470 1469 1469 1468 1467 1467 1466 1465 1464 1463 1463 1462 1461
1481 1481 1481 1481 1481 1480 1480 1479 1479 1479 1479 1478 1478 1478 1477 1476 1476 1475 1474 1473 1472 1472 1471 1470 1470 1469 1468 1468 1468 1468 1468 1467 1467 1467 1466 1465 1465 1463 1463 1462 1461 1460 1460 1459
1481 1480 1480 1480 1480 1479 1479 1478 1478 1477 1477 1477 1476 1476 1475 1474 1473 1472 1471 1471 1470 1469 1468 1468 1467 1466 1465 1465 1465 1465 1465 1465 1464 1464 1464 1463 1462 1461 1460 1460 1459 1458 1457 1456
1480 1479 1479 1479 1478 1478 1477 1477 1476 1476 1475 1475 1474 1473 1473 1472 1471 1470 1469 1468 1467 1466 1466 1465 1464 1463 1462 1462 1462 1462 1462 1462 1461 1461 1461 1461 1460 1459 1458 1457 1457 1456 1455 1454
1478 1477 1477 1477 1477 1476 1475 1475 1474 1474 1473 1473 1472 1471 1470 1469 1468 1468 1467 1466 1465 1464 1463 1462 1461 1460 1460 1459 1459 1459 1459 1459 1459 1459 1458 1458 1457 1456 1455 1454 1454 1453 1452 1451
1476 1475 1475 1474 1474 1473 1473 1472 1472 1471 1471 1470 1470 1469 1468 1468 1467 1466 1465 1463 1462 1461 1460 1459 1458 1457 1457 1457 1457 1456 1456 1456 1456 1455 1455 1455 1454 1453 1452 1451 1450 1450 1449 1448
1473 1473 1472 1472 1471 1471 1470 1470 1470 1469 1468 1468 1468 1467 1466 1465 1464 1463 1462 1461 1460 1459 1458 1457 1456 1455 1455 1454 1454 1454 1454 1453 1453 1453 1452 1452 1451 1450 1449 1448 1448 1447 1446 1446
1470 1470 1469 1469 1469 1468 1468 1468 1467 1467 1466 1466 1465 1465 1464 1463 1462 1461 1460 1459 1458 1457 1456 1455 1454 1453 1453 1452 1452 1452 1451 1451 1451 1450 1449 1449 1448 1447 1446 1445 1445 1444 1444 1443